Location: Recife
(8.0585°S, 34.8848°W)
Time: 12:58:48
(UTC-03:00)

Vanguard 1 Rocket - Pass Details

Date: 16 April 2026
Orbit: 655 x 4212 km, 34.3° (Epoch: 12 May)

Event Time Altitude Azimuth Distance (km) Brightness Sun altitude
Rises 20:10:07 0° 266° (W) 7,032 12.7 -43.3°
Reaches altitude 10° 20:15:32 10° 276° (W) 6,466 12.3 -44.6°
Maximum altitude 20:33:36 29° 328° (NNW) 5,851 11.5 -49.1°
Drops below altitude 10° 20:53:59 10° 21° (NNE) 7,086 11.8 -54.1°
Sets 21:00:40 0° 33° (NNE) 7,747 12.0 -55.7°
